FW8889 Weather Reports


time (UTC)temp
C
wind
direction
speed
KPH
gust
KPH
rain 1hr
cm
rain 24hr
cm
rain mn
cm
humidity
%
barometer
mb
20240418181551 8 151 0.0 3.2 0.00 0.00 0.00 72 1022.9
20240418180044 8 151 1.6 3.2 0.00 0.00 0.00 72 1023.0
20240418174543 9 146 0.0 4.8 0.00 0.00 0.00 72 1022.7
20240418173041 9 153 0.0 4.8 0.00 0.00 0.00 69 1022.7
20240418171547 9 150 1.6 8.0 0.00 0.00 0.00 67 1022.7
20240418170044 9 142 1.6 4.8 0.00 0.00 0.00 66 1022.7
20240418164544 9 140 3.2 6.4 0.00 0.00 0.00 65 1022.5
20240418163048 9 0 1.6 6.4 0.00 0.00 0.00 66 1022.5
20240418161542 9 232 1.6 6.4 0.00 0.00 0.00 67 1022.3
20240418160044 9 262 0.0 4.8 0.00 0.00 0.00 69 1022.3
20240418154549 8 169 0.0 4.8 0.00 0.00 0.00 69 1022.5
20240418153052 8 134 0.0 8.0 0.00 0.00 0.00 68 1022.5
20240418151552 8 142 1.6 6.4 0.00 0.00 0.00 68 1022.6
20240418150132 8 166 0.0 8.0 0.00 0.00 0.00 68 1022.7
20240418144546 8 162 0.0 8.0 0.00 0.00 0.00 72 1022.6
20240418143041 8 140 0.0 6.4 0.00 0.00 0.00 71 1022.5
20240418141540 8 170 0.0 6.4 0.00 0.00 0.00 72 1022.7
20240418140049 7 142 1.6 6.4 0.00 0.00 0.00 70 1022.8
20240418134549 7 143 1.6 4.8 0.00 0.00 0.00 72 1022.9
20240418133047 7 0 0.0 4.8 0.00 0.00 0.00 76 1022.6
20240418131551 7 134 1.6 8.0 0.00 0.00 0.00 74 1022.6
20240418130042 7 141 1.6 8.0 0.00 0.00 0.00 72 1022.7
20240418124548 8 0 1.6 4.8 0.00 0.00 0.00 72 1022.7
20240418123048 8 144 1.6 6.4 0.00 0.00 0.00 72 1022.4
20240418121543 7 161 1.6 8.0 0.00 0.00 0.00 73 1022.7
20240418120047 7 171 1.6 4.8 0.00 0.00 0.00 74 1022.8
20240418114545 7 156 0.0 4.8 0.00 0.00 0.00 76 1022.4
20240418113046 7 0 0.0 8.0 0.00 0.00 0.00 80 1022.6
20240418111542 7 181 0.0 6.4 0.00 0.00 0.00 81 1022.4
20240418110047 7 0 0.0 8.0 0.00 0.00 0.00 82 1022.2
20240418104549 7 145 0.0 4.8 0.00 0.00 0.00 83 1022.0
20240418103052 7 0 0.0 6.4 0.00 0.00 0.00 83 1022.0
20240418101551 7 287 0.0 4.8 0.00 0.00 0.00 81 1021.8
20240418100046 7 136 0.0 4.8 0.00 0.00 0.00 80 1021.6
20240418094544 7 0 0.0 3.2 0.00 0.00 0.00 80 1021.2
20240418093058 7 0 0.0 4.8 0.00 0.00 0.00 80 1021.3
20240418091547 7 0 0.0 3.2 0.00 0.00 0.00 81 1021.2
20240418090054 7 141 0.0 3.2 0.00 0.00 0.00 80 1021.0
20240418084542 7 203 0.0 3.2 0.00 0.00 0.00 79 1021.3
20240418083049 6 0 0.0 3.2 0.00 0.00 0.00 79 1021.0
20240418081541 6 0 0.0 1.6 0.00 0.00 0.00 77 1021.1
20240418080043 6 0 0.0 1.6 0.00 0.00 0.00 76 1021.1
20240418074543 6 0 0.0 1.6 0.00 0.00 0.00 78 1020.8
20240418073047 6 0 0.0 1.6 0.00 0.00 0.00 81 1020.7
20240418071544 6 0 0.0 1.6 0.00 0.00 0.00 81 1020.6
20240418070047 6 0 0.0 1.6 0.00 0.00 0.00 82 1020.6
20240418064543 5 0 0.0 0.0 0.00 0.00 0.00 83 1020.9
20240418063050 5 0 0.0 1.6 0.00 0.00 0.00 83 1021.0
20240418061541 5 0 0.0 1.6 0.00 0.00 0.00 84 1021.4
20240418060044 5 0 0.0 0.0 0.00 0.00 0.00 83 1021.6
20240418054546 5 0 0.0 0.0 0.00 0.00 0.00 83 1021.6
20240418053049 5 0 0.0 1.6 0.00 0.00 0.00 82 1021.8
20240418051546 5 0 0.0 1.6 0.00 0.00 0.00 81 1022.1
20240418050114 6 0 0.0 1.6 0.00 0.00 0.00 81 1022.2
20240418044547 6 0 0.0 3.2 0.00 0.00 0.00 80 1022.5
20240418043043 6 133 0.0 3.2 0.00 0.00 0.00 81 1022.6
20240418041550 6 0 0.0 4.8 0.00 0.00 0.00 81 1022.7
20240418040112 6 0 0.0 1.6 0.00 0.00 0.00 81 1022.8
20240418034545 6 134 0.0 4.8 0.00 0.00 0.00 81 1022.6
20240418033048 6 0 0.0 3.2 0.00 0.00 0.00 80 1022.6
20240418031547 6 134 0.0 4.8 0.00 0.00 0.00 79 1022.6
20240418030046 6 0 0.0 3.2 0.00 0.00 0.00 78 1022.6
20240418024543 6 140 0.0 3.2 0.00 0.00 0.00 79 1022.3
20240418023043 6 140 0.0 4.8 0.00 0.00 0.00 79 1022.1
20240418021541 6 0 0.0 3.2 0.00 0.00 0.00 79 1022.2
20240418020057 6 140 0.0 3.2 0.00 0.00 0.00 78 1022.3
20240418014546 6 0 0.0 3.2 0.00 0.00 0.00 77 1022.3
20240418013053 6 140 0.0 3.2 0.00 0.00 0.00 77 1022.3
20240418011547 6 0 0.0 4.8 0.00 0.00 0.00 76 1022.3
20240418010045 7 140 0.0 4.8 0.00 0.00 0.00 75 1022.1
20240418004544 7 139 0.0 4.8 0.00 0.00 0.00 74 1021.8
20240418003046 7 0 0.0 6.4 0.00 0.00 0.00 73 1021.8
20240418001547 7 140 0.0 8.0 0.00 0.00 0.00 72 1021.6
20240418000043 7 123 3.2 9.7 0.00 0.00 0.00 70 1021.3
20240417234547 7 0 1.6 8.0 0.00 0.00 0.00 68 1020.9
20240417233058 8 130 3.2 6.4 0.00 0.00 0.00 66 1021.1
20240417231558 8 0 1.6 11.3 0.00 0.00 0.00 63 1021.0
20240417230047 8 0 1.6 11.3 0.00 0.00 0.00 62 1020.9
20240417224557 9 135 1.6 11.3 0.00 0.00 0.00 61 1021.0
20240417223042 9 115 3.2 9.7 0.00 0.00 0.00 59 1020.9
20240417221546 10 160 1.6 12.9 0.00 0.00 0.00 59 1020.8
20240417220042 10 148 1.6 12.9 0.00 0.00 0.00 58 1020.7
20240417214543 10 175 3.2 14.5 0.00 0.00 0.00 56 1020.6
20240417213040 10 0 1.6 8.0 0.00 0.00 0.00 58 1020.5
20240417211545 11 142 1.6 11.3 0.00 0.00 0.00 56 1020.4
20240417210057 12 268 1.6 14.5 0.00 0.00 0.00 54 1020.4
20240417204546 13 193 3.2 12.9 0.00 0.00 0.00 52 1020.2
20240417203043 13 150 3.2 11.3 0.00 0.00 0.00 50 1020.2
20240417201544 13 153 1.6 11.3 0.00 0.00 0.00 50 1020.2
20240417200051 14 175 3.2 12.9 0.00 0.00 0.00 48 1020.2
20240417194551 13 138 4.8 14.5 0.00 0.00 0.00 51 1020.3
20240417193049 12 138 3.2 12.9 0.00 0.00 0.00 51 1020.4
20240417191548 13 134 3.2 16.1 0.00 0.00 0.00 49 1020.6
20240417190042 14 171 3.2 9.7 0.00 0.00 0.00 49 1020.9
20240417184552 14 117 1.6 9.7 0.00 0.00 0.00 48 1021.0
20240417183050 13 146 3.2 11.3 0.00 0.00 0.00 48 1021.1